STARLINK-34522, 64492

Orbit data source: Space-Track

STARLINK-34522, 64492 is a payload satellite owned by SpaceX/Seattle (US) in LEO that was launched on Mon, 23 Jun 2025 UTC via an FALCON 9 launch vehicle from the Air Force Eastern Test Range (AFETR). Payload-class satellites include a variety of spacecraft equipped with specific instruments for various scientific and technological missions. These include communications satellites like Starlink; space stations such as the ISS; scientific satellites like the Hubble; Earth observation satellites from companies like Planet Labs, Umbra, and HawkEye 360; GPS; miniature CubeSats for education and research; and military/defense satellites.

Loading next visibility...
Identifier
64492, 2025-133W
Orbit
LEO
Country
Flag of USUS
Related business
Manufacturer
SpaceX/Seattle
Mission
Operational Commercial Communications
Bus & Motor
STARLINK V2MO, Unknown motor
Mass
575 kg wet, ~530 kg dry
Launch date (UTC)
2025-06-23 (1 year ago)
Launch vehicle
FALCON 9
Launch site
Air Force Eastern Test Range (AFETR)
Object type
Payload
Rocket body
Debris
Shape & HBR
Box + 2 Pan, 17.7 m
Radar Cross Section
36.964 m², Large (>1 m²)

Expand to show TLE details & history
Last TLE update: 1 day ago

TLE from 1 day ago
0 STARLINK-34522
1 64492U 25133W   26170.84650736  .00014824  00000-0  44899-3 0  9990
2 64492  53.1626 359.1234 0001181  92.6208 267.4930 15.34400410 56874
Epoch: 2026-06-19T20:18Z
TLE epoch observation values (Epoch: 2026-06-19T20:18:58.235Z)
Latitude
-0.00003°
Longitude
146.31111°
Altitude
463.639 km
Speed
7.636 km/s
True Right ascension
23h 56m 29s
True Declination
0° 00' 00"
Sunlit
Object was in daylight at epoch
Visualization orbit readout
Latitude
Unknown
Longitude
Unknown
Altitude
Unknown
Speed
Unknown
Apparent Right ascension
Unknown
Apparent Declination
Unknown
Sunlit
N/A
Visualization observer readout
Local Sidereal Time
08:41:47
Azimuth
Unknown
Elevation
Unknown
Doppler factor
Unknown
Orbital elements
Apogee altitude
463.766 km
Perigee altitude
462.151 km
Semi-major axis
6,841.095 km
Eccentricity
0.00012
Inclination
53.1626°
RAAN
359.1234°
Arg. of periapsis
92.6208°
True anomaly
267.47948°
Mean anomaly
267.493°
Eccentric anomaly
267.48624°
Mean motion
3.83579 °/min
Orbital period
93.85 mins
BSTAR
0.00044899
Loading maneuver chart data...
Computing Atmospheric mass density...
Loading historical data...
Loading historical data...
Loading historical data...
Loading historical data...
Loading historical data...
Loading historical data...
Loading historical data...

Documentation

Showing up to 5 results
|